This is the latest recevied weather packets stored in our database for station/object HOWARD. If no packets are shown the sender has not sent any weather packets the latest 10 day(s).
| Time | Temp. | Humidity | Pressure | Rain* | Wind** | Luminosity | Snow |
|---|---|---|---|---|---|---|---|
| 1787999678 | 10° C | 70% | 1014 hPa | 0 mm | - | - | - |
| 1787999078 | 9.44° C | 69% | 1013.9 hPa | 0 mm | - | - | - |
| 1787998478 | 9.44° C | 69% | 1014.1 hPa | 0 mm | - | - | - |
| 1787997878 | 9.44° C | 67% | 1014.3 hPa | 0 mm | - | - | - |
| 1787997278 | 8.89° C | 67% | 1014.3 hPa | 0 mm | - | - | - |
| 1787996678 | 8.89° C | 68% | 1014.3 hPa | 0 mm | - | - | - |
| 1787996078 | 8.89° C | 63% | 1014.3 hPa | 0 mm | - | - | - |
| 1787995478 | 9.44° C | 65% | 1014.3 hPa | 0 mm | - | - | - |
| 1787994878 | 10° C | 66% | 1014.2 hPa | 0 mm | - | - | - |
| 1787994278 | 9.44° C | 65% | 1014.2 hPa | 0 mm | - | - | - |
| 1787993678 | 8.89° C | 62% | 1014.2 hPa | 0 mm | - | - | - |
| 1787993078 | 9.44° C | 63% | 1014.2 hPa | 0 mm | - | - | - |
| 1787992478 | 8.89° C | 62% | 1014.4 hPa | 0 mm | - | - | - |
| 1787991878 | 10° C | 59% | 1014.4 hPa | 0 mm | - | - | - |
| 1787991278 | 9.44° C | 68% | 1014.4 hPa | 0 mm | - | - | - |
| 1787990757 | 8.33° C | 64% | 1014.4 hPa | 0 mm | - | - | - |
| 1787990678 | 8.33° C | 64% | 1014.4 hPa | 0 mm | - | - | - |
| 1787990078 | 8.33° C | 65% | 1014.5 hPa | 0 mm | - | - | - |
| 1787989478 | 8.33° C | 65% | 1014.5 hPa | 0 mm | - | - | - |
| 1787989008 | 8.33° C | 65% | 1014.7 hPa | 0 mm | - | - | - |
| 1787988878 | 8.33° C | 65% | 1014.7 hPa | 0 mm | - | - | - |
| 1787988278 | 8.33° C | 66% | 1014.8 hPa | 0 mm | - | - | - |
| 1787987678 | 8.33° C | 65% | 1014.8 hPa | 0 mm | - | - | - |
| 1787987078 | 8.89° C | 62% | 1014.8 hPa | 0 mm | - | - | - |
| 1787986478 | 10.56° C | 55% | 1014.9 hPa | 0 mm | - | - | - |
* Rain latest hour (hover to see other rain measurements)
** Current wind speed in m/s (hover to see current wind gust speed)